❰ Current Conditions

NWS Regional Weather Roundup - New England Area

REGIONAL WEATHER ROUNDUP
NATIONAL WEATHER SERVICE BOSTON/NORTON MA
1100 AM EDT TUE APR 07 2020

NOTE:  "FAIR" INDICATES FEW OR NO CLOUDS BELOW 12,000 FEET WITH NO 
SIGNIFICANT WEATHER AND/OR OBSTRUCTIONS TO VISIBILITY.

MAZALL-071600-
EASTERN MASSACHUSETTS
  
CITY           SKY/WX    TMP DP  RH WIND       PRES   REMARKS
BOSTON         FAIR      56  22  26 W9        29.89S                  
BEVERLY        FAIR      56  23  27 W8        29.88S                  
LAWRENCE       FAIR      55  23  28 W10       29.89F                  
BEDFORD        FAIR      58  25  28 W9        29.88S                  
BLUE HILL        N/A     54  22  28 VRB5      29.87F                  
NORWOOD        FAIR      57  24  28 VRB6      29.89F                  
MARSHFIELD     FAIR      57  25  28 VRB6G13   29.88F                  
PLYMOUTH       FAIR      56  24  29 W8        29.88F                  
TAUNTON        FAIR      57  24  28 VRB6      29.89F                  
NEW BEDFORD    FAIR      57  25  29 W8        29.89F                  
$$

MAZALL-071600-
CAPE COD AND THE ISLANDS
  
CITY           SKY/WX    TMP DP  RH WIND       PRES   REMARKS
FALMOUTH       SUNNY     55  23  28 NW9       29.90S                  
HYANNIS        FAIR      57  20  23 N9        29.88S                  
CHATHAM        FAIR      55  22  27 N8        29.90S                  
PROVINCETOWN   FAIR      50  33  52 NW8       29.90S                  
NANTUCKET      FAIR      56  30  37 W9        29.90F                  
MARTHAS VNYRD  FAIR      57  26  30 NW9       29.90F                  
$$
 
MAZALL-071600-
CENTRAL AND WESTERN MASSACHUSETTS
  
CITY           SKY/WX    TMP DP  RH WIND       PRES   REMARKS
WORCESTER      FAIR      51  27  39 NW17      29.89F                  
FITCHBURG      FAIR      55  25  31 W15       29.89F                  
ORANGE         FAIR      55  27  34 NW10      29.91F                  
SPRINGFIELD    MOSUNNY   57  25  29 NW10G22   29.89F                  
WESTFIELD      FAIR      57  27  31 NW16      29.90F                  
NORTH ADAMS    FAIR      53  25  33 W12G18    29.90F                  
PITTSFIELD     FAIR      53  25  33 NW9G20    29.89F                  
$$
 
RIZALL-071600-
RHODE ISLAND
  
CITY           SKY/WX    TMP DP  RH WIND       PRES   REMARKS
PROVIDENCE     FAIR      58  26  29 W15       29.90F                  
NEWPORT        FAIR      57  26  30 VRB7      29.90F                  
BLOCK ISLAND   PTSUNNY   54  28  36 W14G21    29.94F                  
SMITHFIELD     FAIR      56  27  32 W12G21    29.89F                  
WESTERLY       FAIR      59  29  31 SW12      29.92F                  
$$
 
CTZALL-071600-
CONNECTICUT
  
CITY           SKY/WX    TMP DP  RH WIND       PRES   REMARKS
BRADLEY INTL   FAIR      57  30  35 W10       29.91F                  
HARTFORD       FAIR      56  32  40 CALM      29.92F                  
BRIDGEPORT     CLOUDY    56  28  34 SW8       29.95F                  
DANBURY        CLOUDY    55  33  43 VRB6      29.95F                  
GROTON         FAIR      54  37  52 W13       29.92F                  
NEW HAVEN      CLOUDY    55  33  43 SW6       29.95F                  
CHESTER        FAIR      57  30  35 W8        29.93F                  
MERIDEN        PTSUNNY   56  31  38 VRB6      29.93F                  
WILLIMANTIC    FAIR      55  29  36 W10G20    29.92F                  
OXFORD         PTSUNNY   52  30  43 W7        29.94F                  
$$

MEZ002-015-021-024-NHZ003-005-008-011-012-014-VTZ005-008-071600-
NORTHERN NEW ENGLAND
  
CITY           SKY/WX    TMP DP  RH WIND       PRES   REMARKS
PORTLAND ME    FAIR      52  23  32 VRB3      29.86F                  
BANGOR ME      PTSUNNY   42  16  34 NW12G18   29.86F                  
CONCORD NH     FAIR      54  19  25 NW8       29.88F                  
MANCHESTER NH  FAIR      55  20  25 CALM      29.87F                  
NASHUA NH      FAIR      55  23  28 VRB5      29.89F                  
PORTSMOUTH NH  MOSUNNY   56  16  20 NW10G16   29.86S                  
JAFFREY NH     FAIR      52  29  41 W9        29.88F                  
KEENE NH       FAIR      53  22  29 SW9G16    29.89F                  
BURLINGTON VT  FAIR      51  18  27 VRB6      29.89F                  
MT. WASHINGTON PTSUNNY   19  12  73 NW44G56     N/A  WCI  -2          
$$

NYZ052-076-071600-
EASTERN NEW YORK
  
CITY           SKY/WX    TMP DP  RH WIND       PRES   REMARKS
ALBANY         FAIR      56  21  25 NW8       29.92F                  
NEW YORK CITY  PTSUNNY   58  29  33 NW7       29.96F                  
$$
 
ANZALL-071600-
MARINE OBSERVATIONS
  
STATION/POSITION TIME  TEMP    WIND        PRES    VSBY  WAVE
                       AIR SEA DIR/SP/G                  HT/PER
                 (UTC) (F)     (DEG/KT/KT) (MB)    (MI)  (FT/S)
BOSTON BUOY      1350   46 43  260/  8/  8 1011.6          2/11
BUZZARDS BAY     1400          250/ 10/ 10 1014.3R
NANTUCKET SOUND  NOT AVBL
MASS BAY-STELLWA 1404   46 42  280/  2/  4 1009.8F  1 7/8  3/11
ISLE OF SHOALS   1400   49     300/  9/  9 1011.5R
S OF BLOCK IS    1430      44                N/A           3/11
$$

......................KEY.........................
  SKY/WX - SKY CONDITION/PRESENT WEATHER
  TMP    - TEMPERATURE IN FAHRENHEIT
  DWPT   - DEWPOINT IN FAHRENHEIT
  RH     - RELATIVE HUMIDITY IN PERCENT
  WIND   - DIRECTION AND SPEED IN MPH
  PRES   - MEAN SEA LEVEL PRESSURE IN INCHES OF HG
  WCI    - WIND CHILL INDEX
  VSB    - VISIBILITY IN MILES
  HX     - HEAT INDEX
  TC     - TEMPERATURE IN CELSIUS
  VRB    - VARIABLE WIND DIRECTION